Location: Bernay
(48.6766°N, 2.9386°E)
Time: 03:53:32
(UTC+00:00)

SJ 16-02 - Visible Passes

Search period start: 21 April 2026 00:00
Search period end: 01 May 2026 00:00
Orbit: 582 x 593 km, 75.0° (Epoch: 20 April)

Date Brightness Start Highest point End Pass type
(mag) Time Alt. Az. Time Alt. Az. Time Alt. Az.
21 Apr 2.3 21:29:09 10° N 21:33:02 33° ENE 21:33:10 33° ENE visible
21 Apr 3.2 23:07:22 10° NW 23:09:39 23° WNW 23:09:39 23° WNW visible
22 Apr 1.7 21:36:21 10° NNW 21:40:31 49° ENE 21:40:32 49° ENE visible
22 Apr 3.5 23:15:14 10° NW 23:17:02 17° WNW 23:17:02 17° WNW visible
23 Apr 3.6 20:07:36 10° NNE 20:09:02 11° NE 20:10:28 10° ENE visible
23 Apr 1.2 21:43:39 10° NNW 21:47:56 75° ENE 21:47:56 75° ENE visible
23 Apr 3.9 23:23:36 10° WNW 23:24:25 12° W 23:24:25 12° W visible
24 Apr 3.3 20:14:02 10° NNE 20:16:41 16° NE 20:18:50 12° E visible
24 Apr 1.2 21:51:01 10° NNW 21:55:17 72° WSW 21:55:20 72° WSW visible
25 Apr 2.9 20:20:56 10° N 20:24:17 22° NE 20:26:16 16° E visible
25 Apr 1.8 21:58:30 10° NNW 22:02:36 46° WSW 22:02:46 46° WSW visible
26 Apr 2.4 20:28:00 10° N 20:31:48 30° ENE 20:33:44 21° ESE visible
26 Apr 2.5 22:06:06 10° NW 22:09:51 30° WSW 22:10:14 30° WSW visible
27 Apr 1.8 20:35:10 10° N 20:39:17 44° ENE 20:41:13 26° ESE visible
27 Apr 3.1 22:13:53 10° NW 22:17:03 20° W 22:17:43 20° WSW visible
28 Apr 1.3 20:42:26 10° NNW 20:46:42 68° ENE 20:48:43 29° SE visible
28 Apr 3.7 22:22:04 10° WNW 22:24:12 14° W 22:25:14 13° WSW visible
29 Apr 1.3 20:49:47 10° NNW 20:54:03 79° WSW 20:56:16 28° SSE visible
30 Apr 1.9 20:57:14 10° NNW 21:01:22 51° WSW 21:03:50 22° S visible
